Retour au catalogue

COSMOS 415

ActifMilitaireLEO
NORAD 5214·PAYLOAD·🇷🇺 Russia

Lancé May 7, 1971 depuis Plesetsk Cosmodrome

Loading…

Prochains Passages (prochaines 24 heures)

TLE

FraisSource: Space-Track

Époque: Sep 14, 2026, 14:19 UTC

1 05214U 71041E   26257.59690213  .00000001  00000-0  11433-3 0  9998
2 05214  74.0180 328.4240 0031668 181.4842 178.6118 12.47497691520839

Suivez COSMOS 415 en temps réel avec AllMySat

Download on the App Store